sat.trackr.live / text

‹ back to catalog

STARLINK-30436

NORAD 57880 · 2023-144S

PAYLOAD ACTIVE UNKNOWN

§ Identity

Operator
Country
US
Launch date
2023-09-16
Launch site
AFETR
Launch vehicle
Mass (kg)
RCS (m²)

Purposes: comms

External: N2YO · Heavens-Above · Gunter

§ Orbital elements

Epoch: 2026-09-20T07:17:27.939840Z

Period
94.27 min
Inclination
43.0012°
Eccentricity
0.0001262
Mean motion
15.27579263 rev/d
Perigee alt
482.2 km
Apogee alt
483.9 km
Semi-major
6,861.2 km
B*
5.3408e-5
RAAN
265.9066°
Arg perigee
264.5884°
Mean anomaly
95.4824°
Rev number
16,740

§ Raw data

STARLINK-304361 57880U 23144S   26263.30379560  .00001208  00000+0  53408-4 0  99982 57880  43.0012 265.9066 0001262 264.5884  95.4824 15.27579263167409

JSON: /api/v1/satellites/57880 · /tle

For live sub-satellite position, see the globe view (requires WebGL).

§ Visibility from observer

Set your observer location to see the next 7 days of passes ≥ 10°. The values pass through the URL so the page stays shareable.

No JS? Fill the form by hand. The geolocation button needs JavaScript.